[[{"header":{"parameterUnit":"m.s-1","parameterCategory":1,"la1":30.2991,"la2":30.254,"lo1":-89.0895,"lo2":-89.0444,"dy":0.0017,"dx":0.0017,"nx":28,"ny":28,"refTime":"2024-10-01T03:00:00:Z","depth":0,"parameterNumber":2,"parameterNumberName":"U-component_of_WINDS"},"data":[0,0,0,0,0,0,0,0,0,0,0,0,0,0,0,0,0,0,0,0,0,0,0,0,0,0,0,0,0,0,0,0,0,0,0,0,0,0,0,0,0,0,0,0,0,0,0,0,0,0,0,0,0,0,0,0,0,0,0.5202,0.5202,0,0.5225,0.5225,0.5225,0.5226,0.5226,0.5226,0.5225,0.5248,0.5249,0.525,0,0,0,0,0,0,0,0,0,0,0,0,0,0.5159,0.516,0.5202,0.5202,0.5203,0.5225,0.5225,0.5226,0.5226,0.5226,0.5226,0.5225,0.5248,0.5249,0.525,0,0,0,0,0,0,0,0,0,0,0,0,0,0.518,0.516,0.5202,0.5206,0.5206,0.5225,0.5225,0.5226,0.5226,0.5226,0.5226,0.5225,0.5247,0.5249,0.525,0.5266,0,0,0.5254,0.5254,0,0,0,0,0,0,0,0,0.5178,0.5181,0.5205,0.5206,0.5206,0.5222,0.5218,0.5239,0.5227,0.5219,0.5225,0.5225,0.524,0.5242,0.5247,0.5267,0.5268,0.5254,0.5255,0.5255,0.5256,0,0,0,0,0,0,0,0.5177,0.518,0.5211,0.5205,0.5206,0.5206,0.5209,0.5222,0.5231,0.5219,0.522,0.5222,0.524,0.5246,0.5247,0.5268,0.5254,0.5255,0.5256,0.5256,0.5305,0.5305,0,0,0,0,0,0,0.5175,0.5179,0.521,0.5212,0.5191,0.5208,0.521,0.5218,0.5231,0.5233,0.5223,0.5222,0.5244,0.5246,0.5248,0.5269,0.5255,0.5257,0.5257,0.5304,0.5305,0.5306,0,0,0,0,0,0,0.5174,0.5178,0.5209,0.5195,0.52,0.5209,0.5217,0.5218,0.5224,0.5234,0.5235,0.5227,0.5243,0.5246,0.5262,0.527,0.5257,0.5258,0.5304,0.5305,0.5305,0.531,0,0,0,0,0,0,0.5173,0.5177,0.5183,0.5196,0.52,0.5223,0.5217,0.5219,0.5226,0.5226,0.5238,0.5239,0.5243,0.526,0.5263,0.5271,0.5259,0.5303,0.5304,0.5305,0.5309,0.5311,0.5312,0,0,0,0,0,0.5171,0.5183,0.5184,0.5187,0.5208,0.5223,0.5226,0.523,0.5227,0.5233,0.524,0.5239,0.5269,0.5262,0.5265,0.5274,0.5303,0.5304,0.5305,0.5309,0.5311,0.5312,0,0,0,0,0,0,0.5171,0.5185,0.5185,0.5202,0.5211,0.5223,0.5231,0.5232,0.5243,0.5242,0.5247,0.525,0.5266,0.5271,0.5264,0.5291,0.5285,0.5287,0.5287,0.5289,0.529,0.5289,0.526,0,0,0,0,0,0.5173,0.5184,0.5196,0.5209,0.5214,0.5222,0.5229,0.5232,0.5242,0.5245,0.5253,0.5263,0.5275,0.5282,0.5293,0.531,0.5314,0.5318,0.532,0.5321,0.5323,0.5334,0.5336,0.531,0.5309,0.5309,0,0,0.5176,0.5186,0.5192,0.5209,0.5217,0.5229,0.5225,0.5237,0.5246,0.5247,0.5263,0.5269,0.528,0.5297,0.5305,0.5302,0.5331,0.5322,0.5323,0.5324,0.5335,0.5338,0.534,0.531,0.531,0.531,0,0,0.519,0.5197,0.521,0.5218,0.5231,0.5236,0.5239,0.5252,0.5256,0.5272,0.5273,0.5284,0.5304,0.5312,0.5319,0.5338,0.5338,0.5341,0.5349,0.536,0.5362,0.5364,0.5371,0.5374,0.5343,0.5343,0.5343,0,0.5193,0.5211,0.5216,0.5229,0.5237,0.5239,0.5252,0.526,0.5275,0.5281,0.5278,0.5304,0.5311,0.5331,0.5336,0.5341,0.5345,0.5339,0.5361,0.5363,0.5365,0.5372,0.5375,0.5343,0.5343,0.5343,0.5343,0,0.5214,0.5227,0.5236,0.5251,0.526,0.5273,0.5281,0.5289,0.5292,0.5298,0.5315,0.5325,0.5338,0.5343,0.5345,0.5364,0.5362,0.536,0.5354,0.5368,0.5375,0.5378,0.5344,0.5343,0.5343,0.5343,0,0,0.5226,0.5246,0.5249,0.5257,0.5272,0.5282,0.5296,0.531,0.5317,0.5328,0.534,0.5358,0.5357,0.5364,0.5368,0.5377,0.5393,0.5374,0.5375,0.5378,0.5415,0.5417,0.542,0.5393,0.5394,0.5394,0.5415,0,0.5242,0.5266,0.5272,0.5293,0.5306,0.5309,0.5321,0.5332,0.5338,0.535,0.5357,0.537,0.5367,0.5372,0.5381,0.5389,0.54,0.5387,0.5405,0.5405,0.5402,0.5424,0.5425,0.5444,0.5417,0.5418,0.5418,0,0.5262,0.5275,0.5297,0.5312,0.5317,0.5328,0.5342,0.5353,0.5366,0.537,0.538,0.5383,0.5398,0.5392,0.5413,0.5404,0.5412,0.5417,0.5418,0.542,0.5413,0.5427,0.545,0.5453,0.5422,0.5422,0.5421,0,0.527,0.5292,0.5309,0.5315,0.5333,0.534,0.5348,0.536,0.5369,0.5382,0.5388,0.5402,0.541,0.5421,0.5428,0.5422,0.5449,0.5443,0.5453,0.5453,0.5459,0.5458,0.5484,0.5463,0.5463,0.5463,0.5463,0,0.5286,0.53,0.5313,0.5323,0.5339,0.5347,0.5362,0.537,0.5381,0.5394,0.5397,0.5409,0.5417,0.543,0.5436,0.5453,0.5456,0.5461,0.5462,0.5461,0.546,0.5466,0.5465,0.5464,0.5463,0.5463,0.5463,0,0.5297,0.5306,0.5325,0.5341,0.5345,0.5356,0.537,0.538,0.5387,0.5403,0.5407,0.5418,0.5434,0.5442,0.5461,0.5465,0.5486,0.5486,0.5481,0.5482,0.5493,0.5492,0.5523,0.5528,0.5503,0.5503,0.5503,0,0.5307,0.5318,0.5335,0.5344,0.5352,0.5366,0.5376,0.5384,0.5394,0.541,0.5419,0.5435,0.5448,0.5473,0.5483,0.5498,0.5499,0.5509,0.5501,0.55,0.5501,0.55,0.5502,0.5511,0.5511,0.5511,0.5511,0,0.5324,0.5329,0.5342,0.5358,0.537,0.5382,0.5395,0.5402,0.5412,0.5423,0.544,0.545,0.547,0.5487,0.5503,0.5511,0.5513,0.5514,0.5517,0.5516,0.5513,0.5516,0.5486,0.5513,0.5513,0.5512,0.5512,0.5512,0.5336,0.5346,0.5361,0.5376,0.5387,0.5399,0.541,0.5419,0.5433,0.5451,0.5455,0.5473,0.5487,0.5509,0.5518,0.5532,0.553,0.5535,0.5536,0.5537,0.5539,0.5511,0.5535,0.5535,0.5535,0.5535,0.5535,0,0.5354,0.5364,0.5378,0.5396,0.5409,0.541,0.5425,0.5435,0.5451,0.5464,0.5477,0.5497,0.5513,0.5525,0.5542,0.5552,0.5553,0.5556,0.5555,0.5558,0.5539,0.5534,0.5554,0.5554,0.5554,0.5554,0.5554,0.5554,0.5365,0.5383,0.539,0.5414,0.5424,0.5441,0.545,0.5461,0.5472,0.5494,0.5508,0.5516,0.5529,0.5547,0.5563,0.5566,0.5572,0.5575,0.5578,0.5561,0.5559,0.5557,0.5553,0.5576,0.5576,0.5596,0.5596,0.5597]},{"header":{"parameterUnit":"m.s-1","parameterCategory":1,"la1":30.2991,"la2":30.254,"lo1":-89.0895,"lo2":-89.0444,"dy":0.0017,"dx":0.0017,"nx":28,"ny":28,"refTime":"2024-10-01T03:00:00:Z","depth":0,"parameterNumber":3,"parameterNumberName":"V-component_of_WINDS"},"data":[0,0,0,0,0,0,0,0,0,0,0,0,0,0,0,0,0,0,0,0,0,0,0,0,0,0,0,0,0,0,0,0,0,0,0,0,0,0,0,0,0,0,0,0,0,0,0,0,0,0,0,0,0,0,0,0,0,0,-2.9017,-2.9018,0,-2.9094,-2.9095,-2.9096,-2.9106,-2.9105,-2.9104,-2.9104,-2.918,-2.9183,-2.9186,0,0,0,0,0,0,0,0,0,0,0,0,0,-2.8878,-2.8881,-2.9017,-2.9018,-2.9019,-2.9094,-2.9095,-2.9096,-2.9106,-2.9105,-2.9104,-2.9103,-2.9179,-2.9183,-2.9186,0,0,0,0,0,0,0,0,0,0,0,0,0,-2.8945,-2.8882,-2.9017,-2.9033,-2.9035,-2.9094,-2.9095,-2.9096,-2.9106,-2.9105,-2.9104,-2.9103,-2.9178,-2.9182,-2.9186,-2.9233,0,0,-2.9199,-2.9201,0,0,0,0,0,0,0,0,-2.8941,-2.895,-2.903,-2.9032,-2.9035,-2.9089,-2.9074,-2.9142,-2.9106,-2.9079,-2.9103,-2.9102,-2.9151,-2.9157,-2.9174,-2.9237,-2.924,-2.9199,-2.9202,-2.9203,-2.9205,0,0,0,0,0,0,0,-2.8937,-2.8947,-2.9047,-2.9031,-2.9034,-2.9036,-2.9044,-2.9087,-2.912,-2.9081,-2.9082,-2.9091,-2.9152,-2.917,-2.9176,-2.9241,-2.9199,-2.9203,-2.9205,-2.9207,-2.9348,-2.9349,0,0,0,0,0,0,-2.8929,-2.8943,-2.9045,-2.905,-2.8984,-2.904,-2.9049,-2.9073,-2.912,-2.9126,-2.9092,-2.9091,-2.9163,-2.9171,-2.9178,-2.9237,-2.9203,-2.9207,-2.921,-2.9347,-2.9348,-2.935,0,0,0,0,0,0,-2.8926,-2.8938,-2.9042,-2.8997,-2.901,-2.9043,-2.907,-2.9075,-2.9093,-2.9128,-2.9134,-2.9104,-2.9163,-2.9173,-2.922,-2.924,-2.9209,-2.9213,-2.9345,-2.9347,-2.9349,-2.9354,0,0,0,0,0,0,-2.8922,-2.8937,-2.8955,-2.8997,-2.9013,-2.9082,-2.9071,-2.9077,-2.91,-2.91,-2.9141,-2.9147,-2.9163,-2.9214,-2.9224,-2.9245,-2.9216,-2.9344,-2.9346,-2.9349,-2.9352,-2.9356,-2.9359,0,0,0,0,0,-2.8917,-2.8953,-2.8956,-2.8969,-2.9036,-2.9083,-2.9092,-2.911,-2.9101,-2.912,-2.9143,-2.9145,-2.9236,-2.9219,-2.923,-2.9252,-2.9342,-2.9345,-2.9348,-2.9351,-2.9355,-2.9359,0,0,0,0,0,0,-2.8912,-2.8959,-2.8963,-2.9013,-2.9045,-2.9085,-2.9109,-2.9115,-2.9148,-2.9147,-2.9168,-2.9177,-2.9223,-2.9243,-2.9222,-2.9301,-2.9288,-2.9294,-2.9286,-2.9291,-2.9294,-2.9288,-2.9219,0,0,0,0,0,-2.8917,-2.8952,-2.8991,-2.9032,-2.9047,-2.9076,-2.9097,-2.9108,-2.9141,-2.9154,-2.918,-2.9212,-2.9247,-2.927,-2.9305,-2.9356,-2.9365,-2.9377,-2.938,-2.9383,-2.9387,-2.9416,-2.9421,-2.9359,-2.9359,-2.9359,0,0,-2.8927,-2.8957,-2.8977,-2.9031,-2.9057,-2.9092,-2.9086,-2.9124,-2.9151,-2.916,-2.9206,-2.9227,-2.9263,-2.9312,-2.9335,-2.933,-2.9406,-2.9386,-2.9388,-2.9391,-2.9419,-2.9425,-2.943,-2.9361,-2.9361,-2.9361,0,0,-2.8963,-2.899,-2.9027,-2.9053,-2.9092,-2.9111,-2.912,-2.916,-2.9174,-2.9222,-2.9229,-2.9261,-2.9322,-2.9348,-2.9369,-2.9417,-2.9421,-2.9428,-2.9445,-2.9473,-2.9478,-2.9482,-2.95,-2.9506,-2.9432,-2.9432,-2.9432,0,-2.897,-2.9025,-2.9045,-2.9083,-2.9106,-2.9118,-2.9155,-2.918,-2.9228,-2.9244,-2.9237,-2.9315,-2.934,-2.9396,-2.9408,-2.9424,-2.9435,-2.9423,-2.9476,-2.948,-2.9485,-2.9501,-2.9508,-2.9433,-2.9433,-2.9433,-2.9433,0,-2.9032,-2.907,-2.9095,-2.9142,-2.9169,-2.9206,-2.9232,-2.9256,-2.9266,-2.9286,-2.9334,-2.9365,-2.9407,-2.9421,-2.943,-2.9479,-2.9474,-2.9472,-2.9459,-2.9491,-2.9507,-2.9513,-2.9434,-2.9433,-2.9433,-2.9433,0,0,-2.9065,-2.9125,-2.9134,-2.9155,-2.92,-2.923,-2.9268,-2.931,-2.933,-2.9363,-2.9396,-2.9448,-2.9447,-2.9471,-2.9483,-2.9508,-2.9544,-2.9503,-2.9504,-2.9509,-2.9599,-2.9601,-2.9608,-2.9547,-2.9549,-2.955,-2.9596,0,-2.9107,-2.9176,-2.9196,-2.9254,-2.9289,-2.9301,-2.9335,-2.9366,-2.9385,-2.9418,-2.944,-2.9476,-2.9471,-2.9486,-2.9511,-2.9534,-2.9563,-2.9532,-2.9578,-2.9579,-2.9567,-2.9616,-2.9617,-2.9659,-2.9603,-2.9604,-2.9605,0,-2.9164,-2.9199,-2.9261,-2.9302,-2.9318,-2.9347,-2.9388,-2.9419,-2.9455,-2.9467,-2.9495,-2.9506,-2.9547,-2.9533,-2.9589,-2.9568,-2.9588,-2.9603,-2.9605,-2.9609,-2.9593,-2.9621,-2.9673,-2.9679,-2.9615,-2.9614,-2.9613,0,-2.9182,-2.9245,-2.929,-2.9309,-2.9358,-2.9379,-2.94,-2.9435,-2.9459,-2.9494,-2.951,-2.9549,-2.9571,-2.9601,-2.9622,-2.961,-2.9677,-2.9665,-2.9688,-2.9688,-2.9701,-2.97,-2.9756,-2.9715,-2.9715,-2.9715,-2.9715,0,-2.9225,-2.9262,-2.9299,-2.9327,-2.9369,-2.9392,-2.9433,-2.9455,-2.9487,-2.9519,-2.9532,-2.9562,-2.9589,-2.9622,-2.9639,-2.9684,-2.9693,-2.9704,-2.9708,-2.9703,-2.9701,-2.9716,-2.9713,-2.9716,-2.9716,-2.9716,-2.9715,0,-2.9252,-2.9278,-2.9328,-2.9371,-2.9383,-2.9412,-2.9449,-2.9477,-2.9498,-2.9539,-2.9549,-2.9582,-2.9623,-2.9647,-2.9698,-2.971,-2.9759,-2.9762,-2.9746,-2.9748,-2.977,-2.9768,-2.9838,-2.9848,-2.98,-2.98,-2.9801,0,-2.9277,-2.9306,-2.9353,-2.9376,-2.9398,-2.9435,-2.946,-2.9484,-2.9509,-2.9553,-2.9576,-2.9617,-2.9652,-2.9716,-2.9744,-2.9783,-2.9787,-2.9809,-2.9793,-2.9787,-2.9787,-2.9785,-2.9788,-2.9811,-2.9812,-2.9812,-2.9812,0,-2.932,-2.9332,-2.9367,-2.9408,-2.9438,-2.9471,-2.9504,-2.9522,-2.9552,-2.958,-2.9622,-2.9649,-2.9702,-2.9743,-2.9785,-2.9807,-2.9815,-2.9817,-2.9825,-2.9819,-2.9809,-2.9815,-2.9753,-2.9815,-2.9815,-2.9815,-2.9815,-2.9814,-2.9346,-2.9373,-2.9411,-2.945,-2.9478,-2.9509,-2.9537,-2.9562,-2.9598,-2.9643,-2.9656,-2.97,-2.9736,-2.9794,-2.9817,-2.9852,-2.9848,-2.9859,-2.9862,-2.9864,-2.9864,-2.9804,-2.9859,-2.9859,-2.9859,-2.9859,-2.9859,0,-2.9389,-2.9414,-2.9451,-2.9497,-2.9529,-2.9534,-2.9572,-2.9597,-2.9636,-2.967,-2.9704,-2.9753,-2.9793,-2.9825,-2.9867,-2.9888,-2.9893,-2.9898,-2.9897,-2.9902,-2.9865,-2.9854,-2.9894,-2.9894,-2.9894,-2.9894,-2.9894,-2.9894,-2.9415,-2.9461,-2.9477,-2.9537,-2.9562,-2.9606,-2.9627,-2.9656,-2.9683,-2.9737,-2.9771,-2.9792,-2.9825,-2.9869,-2.9907,-2.9915,-2.993,-2.9934,-2.9943,-2.9908,-2.9904,-2.99,-2.989,-2.9938,-2.9938,-2.9977,-2.9978,-2.9978]}]]